User: anonymous   Login
Location: Unspecified
(0.0000°N, 0.0000°E)
Time: 08:37:29
(UTC+02:00)
Language:

SeaSat 1 - Orbit

View from above orbital plane
View from above orbital plane
View from above satellite
View from above satellite

Ground track
Ground track

The orbit data is extracted from the following two-line orbital elements,

1 10967U 78064A   16273.16293622 -.00000021  00000-0  34056-4 0  9994
2 10967 108.0074 114.0612 0002618 288.2739  71.8120 14.43582995  8935
Epoch (UTC): 29 September 2016 03:54:37
Eccentricity: 0.0002618
inclination: 108.0074°
perigee height: 745 km
apogee height: 748 km
right ascension of ascending node: 114.0612°
argument of perigee: 288.2739°
revolutions per day: 14.43582995
mean anomaly at epoch: 71.8120°
orbit number at epoch: 893

The dashed part of the orbit path shows where the satellite is in the earth's shadow,  

DLR